Regional Weather Roundup
Issued by NWS Bismarck, ND

Home | Current Version | Previous Version | Text Only | Print | Product List | Glossary On
Versions: 1 2 3 4 5 6 7 8 9 10 11 12 13 14 15 16 17 18 19 20 21 22 23 24 25 26 27 28 29 30 31 32 33 34 35 36 37 38 39 40 41 42 43 44 45 46 47 48 49 50
000
ASUS43 KBIS 131802
RWRBIS

NWR BROADCAST TEXT
NATIONAL WEATHER SERVICE BISMARCK ND
1200 PM CST SAT FEB 13 2016

NOTE: "FAIR" INDICATES FEW OR NO CLOUDS BELOW 12,000 FEET WITH NO
SIGNIFICANT WEATHER AND/OR OBSTRUCTIONS TO VISIBILITY.


CITY           SKY/WX    TMP DP  RH WIND       PRES   REMARKS
WILLISTON      CLOUDY    20  12  71 SE15G21   29.91F WCI   6
MINOT          CLOUDY    16   3  56 SE16      30.07F WCI   1
MINOT AFB      CLOUDY    15   5  65 SE20      30.06F WCI  -2
BISMARCK       CLOUDY    14   4  64 S21       30.15F WCI  -4
DICKINSON      LGT SNOW  14  11  87 S21G29    29.89F VSB 1   WCI  -4
GARRISON         N/A     11   7  84 S20G28    30.06F WCI  -7
HETTINGER ARPT CLOUDY    18  15  88 SE16      29.96F FOG     WCI   3
JAMESTOWN      CLOUDY     6  -4  63 SE18      30.27F WCI -13
CARRINGTON     CLOUDY     5  -2  72 SE24G32   30.23F WCI -17
HAZEN          MOCLDY    10   5  79 S21G31    30.09F WCI  -9
LINTON         CLOUDY    10   5  79 SE24G31   30.17F WCI -10
MANDAN         FAIR      10   5  79 SE23      30.12F WCI -10
OAKES          CLOUDY     9   0  66 SE17      30.34F WCI -10
STANLEY        CLOUDY    12   9  85 S20G29    29.98F WCI  -6
WATFORD CITY   FAIR      18  10  73 S10       29.93F WCI   6
$$

CITY           SKY/WX    TMP DP  RH WIND       PRES   REMARKS
GRAND FORKS    CLOUDY     2  -7  66 S15       30.44F WCI -17
GRAND FORKS AF CLOUDY     3  -7  64 S17       30.40F WCI -17
DEVILS LAKE    CLOUDY     3  -6  66 SE20      30.27F WCI -18
FARGO          SUNNY      6  -5  60 SE16      30.45F WCI -12
CAVALIER       FAIR       1  -4  78 S21       30.39F WCI -20
GRAFTON        FAIR       0  -8  71 SE17      30.46F WCI -21
GWINNER        MOCLDY     7   0  72 SE16      30.38F WCI -11
LANGDON        FAIR       1  -8  66 SE20      30.28F WCI -20
ROLLA          CLOUDY     0  -8  71 S18G24    30.20F WCI -22
$$

CITY           SKY/WX    TMP DP  RH WIND       PRES   REMARKS
ABERDEEN       CLOUDY    12  -1  56 SE17      30.34F WCI  -5
MOBRIDGE       LGT SNOW  15   9  76 SE15      30.12F WCI   0
BUFFALO          N/A     24  22  91 SE17      29.82F WCI  11
RAPID CITY     CLOUDY    40  32  73 S10       29.91F
GLASGOW        FRZ RAIN  25  21  85 E7        29.83F FOG     WCI  17
SIDNEY         CLOUDY    27  19  74 SE15      29.87F WCI  15
GLENDIVE       CLOUDY    30  27  86 SW10G28   29.90R
MILES CITY     LGT RAIN  38  31  76 S6        29.82S
BAKER          CLOUDY    34  26  72 SE12      29.83F
$$

CITY           SKY/WX    TMP DP  RH WIND       PRES   REMARKS
BILLINGS       PTSUNNY   45  31  58 NW41G49   29.89R
GREAT FALLS    MOSUNNY   46  24  42 W26G36    29.90S
$$




USA.gov is the U.S. government's official web portal to all federal, state and local government web resources and services.